GW3496 Weather Reports


time (UTC)temp
C
wind
direction
speed
KPH
gust
KPH
rain 1hr
cm
rain 24hr
cm
rain mn
cm
humidity
%
barometer
mb
20260510081548 14 230 1.6 6.4 0.00 0.00 0.00 86 1008.7
20260510080046 14 274 0.0 0.0 0.00 0.00 0.00 85 1008.5
20260510074552 14 126 0.0 3.2 0.00 0.00 0.00 84 1008.4
20260510073051 14 272 0.0 0.0 0.00 0.00 0.00 83 1008.2
20260510071546 15 251 0.0 0.0 0.00 0.00 0.00 82 1008.3
20260510070040 15 108 0.0 0.0 0.00 0.00 0.00 81 1008.1
20260510064943 15 190 0.0 0.0 0.00 0.00 0.00 80 1008.0
20260510063035 15 174 0.0 0.0 0.00 0.00 0.00 79 1008.2
20260510061535 16 156 0.0 0.0 0.00 0.00 0.00 78 1008.2
20260510060044 16 162 0.0 0.0 0.00 0.00 0.00 77 1008.2
20260510054541 16 284 0.0 0.0 0.00 0.00 0.00 76 1008.0
20260510053038 17 166 0.0 4.8 0.00 0.00 0.00 75 1008.0
20260510051535 17 268 3.2 8.0 0.00 0.00 0.00 74 1008.0
20260510050044 17 253 4.8 6.4 0.00 0.00 0.00 72 1008.0
20260510044532 18 261 0.0 4.8 0.00 0.00 0.00 71 1008.3
20260510043040 18 258 4.8 11.3 0.00 0.00 0.00 70 1008.1
20260510041541 18 240 6.4 11.3 0.00 0.00 0.00 70 1008.0
20260510040050 18 158 6.4 12.9 0.00 0.00 0.00 69 1007.9
20260510034542 18 201 8.0 16.1 0.00 0.00 0.00 68 1007.9
20260510033041 19 207 6.4 9.7 0.00 0.00 0.00 66 1007.7
20260510031540 19 211 6.4 12.9 0.00 0.00 0.00 64 1007.7
20260510030049 19 201 6.4 9.7 0.00 0.00 0.00 64 1007.7
20260510024534 20 165 6.4 9.7 0.00 0.00 0.00 62 1007.5
20260510023035 20 192 4.8 12.9 0.00 0.00 0.00 62 1007.4
20260510021538 20 192 3.2 9.7 0.00 0.00 0.00 61 1007.2
20260510020040 21 206 1.6 6.4 0.00 0.00 0.00 59 1007.1
20260510014538 21 184 0.0 6.4 0.00 0.00 0.00 58 1006.8
20260510013033 21 192 3.2 6.4 0.00 0.00 0.00 57 1006.5
20260510011546 21 155 1.6 8.0 0.00 0.00 0.00 56 1006.5
20260510010041 22 179 3.2 8.0 0.00 0.00 0.00 55 1006.4
20260510004542 22 175 1.6 6.4 0.00 0.00 0.00 54 1006.2
20260510003041 22 169 3.2 12.9 0.00 0.00 0.00 52 1006.1
20260510001543 23 212 6.4 12.9 0.00 0.00 0.00 51 1006.0
20260510000042 23 216 6.4 11.3 0.00 0.00 0.00 50 1005.8
20260509234543 23 201 6.4 12.9 0.00 0.00 0.00 49 1005.9
20260509233039 24 198 4.8 14.5 0.00 0.00 0.00 48 1005.9
20260509231542 24 165 8.0 20.9 0.00 0.00 0.00 47 1005.9
20260509230044 25 225 11.3 22.5 0.00 0.00 0.00 46 1005.8
20260509224542 25 205 6.4 16.1 0.00 0.00 0.00 46 1005.6
20260509223040 25 201 12.9 27.4 0.00 0.00 0.00 45 1005.7
20260509221538 24 232 11.3 19.3 0.00 0.00 0.00 46 1005.9
20260509220040 24 215 19.3 29.0 0.00 0.00 0.00 45 1005.8
20260509214540 25 219 11.3 19.3 0.00 0.00 0.00 46 1005.8
20260509213039 24 198 14.5 29.0 0.00 0.00 0.00 47 1005.8
20260509211535 24 169 8.0 19.3 0.00 0.00 0.00 46 1005.6
20260509210058 25 252 6.4 27.4 0.00 0.00 0.00 47 1005.5
20260509204541 25 122 6.4 25.7 0.00 0.00 0.00 48 1005.5
20260509203042 24 201 14.5 33.8 0.00 0.00 0.00 48 1005.5
20260509201540 24 190 11.3 29.0 0.00 0.00 0.00 50 1005.7
20260509200047 23 232 14.5 24.1 0.00 0.00 0.00 51 1006.0
20260509194542 23 244 12.9 29.0 0.00 0.00 0.00 50 1006.1
20260509193042 23 250 6.4 20.9 0.00 0.00 0.00 53 1006.3
20260509191541 22 223 8.0 22.5 0.00 0.00 0.00 56 1006.7
20260509190047 22 206 11.3 17.7 0.00 0.00 0.00 55 1006.8
20260509184546 22 224 14.5 24.1 0.00 0.00 0.00 56 1007.0
20260509183039 22 169 17.7 24.1 0.00 0.00 0.00 57 1007.2
20260509181551 22 250 12.9 27.4 0.00 0.00 0.00 56 1007.3
20260509180046 22 248 12.9 27.4 0.00 0.00 0.00 57 1007.5
20260509174541 22 236 12.9 22.5 0.00 0.00 0.00 56 1007.6
20260509173041 22 196 8.0 30.6 0.00 0.00 0.00 56 1007.5
20260509171543 21 210 16.1 30.6 0.00 0.00 0.00 57 1007.7
20260509170047 21 180 14.5 24.1 0.00 0.00 0.00 59 1007.9
20260509164543 20 234 16.1 25.7 0.00 0.00 0.00 58 1007.9
20260509163039 20 223 19.3 29.0 0.00 0.00 0.00 58 1008.0
20260509161537 21 252 16.1 29.0 0.00 0.00 0.00 57 1008.1
20260509160041 21 250 14.5 33.8 0.00 0.00 0.00 56 1008.2
20260509154543 21 190 12.9 35.4 0.00 0.00 0.00 56 1008.2
20260509153050 20 205 22.5 38.6 0.00 0.00 0.00 57 1008.4
20260509151539 20 248 12.9 33.8 0.00 0.00 0.00 59 1008.6
20260509150047 19 194 17.7 32.2 0.00 0.00 0.00 60 1008.3
20260509144543 18 215 17.7 37.0 0.00 0.00 0.00 61 1008.7
20260509143043 18 244 20.9 33.8 0.00 0.00 0.00 62 1008.9
20260509141541 17 130 17.7 30.6 0.00 0.00 0.00 63 1008.9
20260509140051 17 207 12.9 29.0 0.00 0.00 0.00 64 1009.3
20260509134545 17 212 16.1 29.0 0.00 0.00 0.00 65 1009.5
20260509133047 16 182 16.1 27.4 0.00 0.00 0.00 66 1009.4
20260509131544 16 191 14.5 24.1 0.00 0.00 0.00 68 1009.4
20260509130048 15 223 9.7 29.0 0.00 0.00 0.00 70 1009.5
20260509124549 15 198 11.3 19.3 0.00 0.00 0.00 71 1009.5
20260509123050 14 139 17.7 30.6 0.00 0.00 0.00 72 1009.4
20260509121547 13 210 9.7 17.7 0.00 0.00 0.00 74 1009.5
20260509120105 13 207 14.5 24.1 0.00 0.00 0.00 75 1009.5
20260509114547 13 199 9.7 30.6 0.00 0.00 0.00 74 1009.5
20260509113054 12 174 12.9 22.5 0.00 0.00 0.00 74 1009.4
20260509111539 12 215 11.3 17.7 0.00 0.00 0.00 73 1009.4
20260509110053 12 209 11.3 19.3 0.00 0.00 0.00 72 1009.2
20260509104545 12 157 4.8 22.5 0.00 0.00 0.00 71 1009.1
20260509103046 12 192 8.0 24.1 0.00 0.00 0.00 71 1009.2
20260509101553 12 211 9.7 16.1 0.00 0.00 0.00 70 1009.3
20260509100052 12 194 4.8 8.0 0.00 0.00 0.00 69 1009.1
20260509094552 12 213 4.8 12.9 0.00 0.00 0.00 68 1009.1
20260509093054 13 198 8.0 14.5 0.00 0.00 0.00 66 1009.3
20260509091622 13 177 3.2 14.5 0.00 0.00 0.00 65 1009.1
20260509090057 13 202 8.0 16.1 0.00 0.00 0.00 64 1009.2
20260509084550 13 193 6.4 12.9 0.00 0.00 0.00 65 1009.2
20260509083054 13 214 6.4 12.9 0.00 0.00 0.00 65 1009.2